STARLINK-1701 (46550 NORAD) Tracking and Keplerian Element Data

This shows tracking and keplerian element data for the satellite.

Feedback or suggestion? Click here.




ElementValue
Catalog46550
NameSTARLINK-1701
Epoch Orbit988
Epoch Day339.00002315
Epoch Year2020
RAAN163.4082
Inclination53.0024
Eccentricity0.0001303
Argument of Perigee74.5393
Mean Anonmoly242.7908
Mean Motion15.05564231
Decay Rate0.00034198
L11 46550U 20070U 20339.00002315 .00034198 00000-0 23559-2 0 9998
L22 46550 53.0024 163.4082 0001303 74.5393 242.7908 15.05564231 9887

Live tracking and technical data element details for STARLINK-1701 (NORAD 46550). STARLINK-1701 can be tracked NOW for your location showing map with azimuth and elevation plus other details from your city location.

Track the satellite on the map from your city or location and see movement details for azimuth, elevation, latitude, longitude, range, height, and movement on the map or in text.







IsCatalogInMostPopularTable: catalog: 46550, numindb: 16
Update: records affected: 1



GetName: 46550 STARLINK-1701

Hit Count: updated at: Sun, 06 Dec 2020 00:58:16 GMT